Regional Weather Roundup
Issued by NWS

Home | Current Version | Previous Version | Text Only | Print | Product List | Glossary Off
Versions: 1 2 3 4 5 6 7 8 9 10 11 12 13 14 15 16 17 18 19 20 21 22 23 24 25 26 27 28 29 30 31 32 33 34 35 36 37 38 39 40 41 42 43 44 45 46 47 48 49 50

000
ASUS45 KCYS 172210
RWRWY

WYOMING REGIONAL WEATHER ROUNDUP
NATIONAL WEATHER SERVICE CHEYENNE WY
300 PM MST SAT FEB 17 2018

NOTE:  "FAIR" INDICATES FEW OR NO CLOUDS BELOW 12,000 FEET
WITH NO SIGNIFICANT WEATHER AND/OR OBSTRUCTIONS TO VISIBILITY.

WYZ001-172300-
YELLOWSTONE NATIONAL PARK

CITY           SKY/WX    TMP DP  RH WIND       PRES   REMARKS
LK YELLOWSTONE   N/A     22  19  89 SW9G25    29.76F WCI  12
W YELLOWSTONE  NOT AVBL

$$
WYZ002>013-054>058-071-098>099-172300-
NORTHERN WYOMING

CITY           SKY/WX    TMP DP  RH WIND       PRES   REMARKS
JACKSON        CLOUDY    33  19  56 S24       29.84F WCI  20
CODY           CLOUDY    38  18  44 SE14      29.68F WCI  30
GREYBULL       FAIR      37  23  56 E7        29.70F WCI  32
WORLAND        FAIR      42  21  43 SE13      29.68F
SHERIDAN       FAIR      35  24  64 E10       29.71F WCI  27
BUFFALO        FAIR      38  20  48 NE5       29.69F WCI  34
GILLETTE       FAIR      36  22  56 SE13      29.75F WCI  27
HULETT         FAIR      34  19  55 S8        29.80F WCI  27
NEWCASTLE      FAIR      34  21  60 SE12      29.84F WCI  25

$$
WYZ014>020-022>026-101>103-172300-
CENTRAL WYOMING

CITY           SKY/WX    TMP DP  RH WIND       PRES   REMARKS
BIG PINEY      CLOUDY    38   7  27 W20G32    29.92F WCI  28
PINEDALE       MOCLDY    32  16  51 S6        29.92F WCI  26
DUBOIS           N/A    N/A N/A N/A MISG        N/A
LANDER         FAIR      44   8  23 CALM      29.74F
RIVERTON       FAIR      41   8  25 S9        29.75F
CASPER         FAIR      46  13  26 SW35G49   29.78F
DOUGLAS        FAIR      46  14  27 W32G41    29.80F

$$
WYZ021-027>030-104>119-172300-
SOUTHERN WYOMING

CITY           SKY/WX    TMP DP  RH WIND       PRES   REMARKS
EVANSTON       FAIR      42  12  29 SW24G32   29.97F
ROCK SPRINGS   FAIR      46   4  17 W29G40    29.94F
DIXON          MOCLDY    36  21  53 SW10      30.06F WCI  29
RAWLINS        FAIR      40  11  30 S23G38    29.91F WCI  30
SARATOGA       CLOUDY    41  10  28 S17G24    29.97F
LARAMIE        PTSUNNY   42   4  20 SW24G31   29.92F
CHEYENNE       FAIR      48   0  13 W35G44    29.90F
TORRINGTON     FAIR      50  15  24 W22G35    29.87F
PINE BLUFFS    FAIR      52   3  14 W24G32    29.91F

$$



USA.gov is the U.S. government's official web portal to all federal, state and local government web resources and services.